User: anonymous   Login
Location: Brno
(49.2000°N, 16.6330°E)
Time: 19:01:47
(UTC+02:00)
Language:

Cosmos 1459 Rocket - Orbit

View from above orbital plane
View from above orbital plane
View from above satellite
View from above satellite

Ground track
Ground track

The orbit data is extracted from the following two-line orbital elements,

1 14059U 83042B   15117.51659297  .00000041  00000-0  26040-4 0  9996
2 14059 082.9694 282.0676 0041456 303.0526 113.3920 13.78509271608061
Epoch (UTC): 27 April 2015 12:23:53
Eccentricity: 0.0041456
inclination: 82.9694°
perigee height: 939 km
apogee height: 999 km
right ascension of ascending node: 282.0676°
argument of perigee: 303.0526°
revolutions per day: 13.78509271
mean anomaly at epoch: 113.3920°
orbit number at epoch: 60806

The dashed part of the orbit path shows where the satellite is in the earth's shadow,  

DLR